MysteryTwister C3
NUMBER OF ACTIVE MEMBERS:

10572
Follow us: Facebook Twitter
 



Level I Challenges (85)

Page 1 of the challenges in Level I, ordered by date posted (the most recent appear first).

A hidden word — Part 2

[theofanidis-06] - 85 users already solved this challenge, 41 are working on it.
 
 
 

A friend of yours has given you the following text which contains only X and Y characters. He claims that this text contains a codeword. Can you find it?
Read more...

Click here to get to the corresponding forum topic to share your opinion.
Click here to download the challenge.

Author: This email address is being protected from spambots. You need JavaScript enabled to view it.
Published on: 2015-04-16 16:47
Maximum number of attempts for this challenge: 15

All successful users of this challenge

Rank User (#85) Achieved points (Global score) y-m-d - h:m:s

H. Lautenschlager (helmi) 200 (49293) 2015-04-16 18:29:39
Armin Krauss (argh) 200 (206264) 2015-04-16 18:35:30
Kurt Gebauer (Yokozuna) 200 (266506) 2015-04-16 19:50:36
Sebastian Slupina (Grandwizard) 200 (10866) 2015-04-16 20:13:45
#5 E.T (Ertheb) 200 (81809) 2015-04-16 21:27:32
#6 Viktor (Veselovský) 200 (169244) 2015-04-16 22:24:12
#7 HolgerK (HolgerK) 200 (25776) 2015-04-16 22:37:10
#8 Rainer Zufall (kiekuk) 200 (56786) 2015-04-16 22:46:37
#9 Michael Möller (michaelm) 200 (238219) 2015-04-17 08:04:29
#10 Andreas Frerichs (Ossili) 200 (33266) 2015-04-17 13:34:36
#11 Karl Schutt (günter) 150 (44273) 2015-04-17 21:04:53
#12 Bart den Hartog (Bart13) 150 (148936) 2015-04-17 22:31:09
#13 Hans Joachim Girulat (joregi) 125 (36278) 2015-04-19 19:26:47
#14 Peter (Garnet) 120 (14234) 2015-04-20 16:59:40
#15 Justin Weiler (HotSauce) 117 (1923) 2015-04-21 22:32:32
#16 Creat1veM1ind (sokrates) 117 (2639) 2015-04-22 14:51:20
#17 Bernhard Gruber (bgr) 113 (22889) 2015-04-24 15:39:29
#18 Dusan (xxdradus) 108 (40436) 2015-04-28 09:28:58
#19 Hans Peter (hanspeter) 107 (52356) 2015-05-01 10:28:41
#20 Kim H. S. (tenchijin) 104 (25468) 2015-05-08 21:52:30
#21 Ulrich Dorobeck (Papageno) 104 (3927) 2015-05-10 21:46:36
#22 Axel J (Äxel) 104 (906) 2015-05-13 20:36:42
#23 partamier (yann) 104 (5635) 2015-05-14 11:06:19
#24 Stefan Noll (MisterTwister) 102 (438) 2015-06-14 20:28:13
#25 Erik (Erox) 101 (26141) 2015-07-15 16:05:41
#26 Tradecraft (Tradecraft) 101 (5540) 2015-07-16 17:45:50
#27 Alain (Integral) 101 (207924) 2015-07-31 13:57:50
#28 Em Doulgerakis (Greko) 101 (133365) 2015-08-27 14:31:46
#29 zahir mohsen moradi (ariobarzan) 101 (99757) 2015-09-02 16:51:42
#30 Roeland (roelieproelie) 101 (403) 2015-09-02 21:01:48
#31 Joerg G. (SnifferMaster) 101 (18271) 2015-09-17 12:35:16
#32 Stepan (m1sterx) 101 (19165) 2015-10-07 15:46:14
#33 Robert (rm) 101 (56475) 2015-10-09 00:57:05
#34 Steph (Tartaglia) 101 (2010) 2015-10-27 17:49:40
#35 Szabó Zoltán (szabo.z87) 100 (55604) 2015-11-03 17:08:54
#36 Victoria Fehr (Rika) 100 (1472) 2015-11-12 12:25:05
#37 Noah (Fridax2000) 100 (755) 2015-11-15 10:18:32
#38 Julia Bernotat (El Greco ) 100 (81129) 2015-11-18 20:14:44
#39 Martin (martinbucher) 100 (30103) 2015-12-17 06:28:41
#40 S (Zyphe) 100 (12811) 2015-12-18 13:26:18
#41 Marc (rcll0891) 100 (24004) 2015-12-27 21:01:29
#42 Dominik M. (Sgt. Pepper) 100 (126749) 2016-01-05 18:31:47
#43 KW (qwer*) 100 (13963) 2016-01-05 21:36:02
#44 Nofre Tete (noffi) 100 (26357) 2016-01-19 23:04:05
#45 Michael (soilfront) 100 (2617) 2016-01-24 12:51:18
#46 Defekt75 (Defekt75) 100 (4325) 2016-02-22 22:56:20
#47 Ines (bufo01) 100 (4515) 2016-03-28 15:39:53
#48 Steve (Samacian) 100 (23804) 2016-04-27 07:31:17
#49 Norbert Biermann (Norbert) 100 (47687) 2016-07-15 17:09:07
#50 Rene (Renederberserker) 100 (800) 2016-08-04 15:08:34
#51 Alain Collignon (vexilla72) 100 (122271) 2016-09-30 18:28:46
#52 Daniel Walder (ibex) 100 (14672) 2016-10-21 14:22:10
#53 Tristan1473 (Tristan1473) 100 (20432) 2016-11-09 14:40:09
#54 Simon Jakob (simon.jakob) 100 (18714) 2016-11-17 10:47:04
#55 zuben c3 (zuben-c3) 100 (24853) 2016-11-23 10:17:37
#56 Steffen (stmue) 100 (2911) 2016-12-16 14:20:56
#57 Robert Kosten (Robert Kosten) 100 (2724) 2017-01-02 17:40:55
#58 chris (c2) 100 (51973) 2017-03-26 22:07:24
#59 Mir Dim (mir0soft) 100 (79760) 2017-04-03 19:25:13
#60 Tormod (tryeng) 100 (3397) 2017-05-25 03:35:14
#61 Kasia (kasia-tutej) 100 (53366) 2017-06-06 16:08:33
#62 D3d4lu5 (D3d4lu5) 100 (343788) 2017-06-22 10:28:43
#63 Tim Fink (Magellan) 100 (4876) 2017-06-30 07:51:44
#64 nimroth (nimroth cynthor) 100 (6021) 2017-12-23 22:45:22
#65 Pen (justtesting) 100 (1697) 2018-01-12 13:29:08
#66 Ignacio (Moebiusar) 100 (7390) 2018-03-21 16:44:18
#67 micaman (micaman) 100 (4634) 2018-05-11 16:55:52
#68 Eric (ExAstris) 100 (27090) 2018-05-28 22:37:25
#69 Random Dude (rnd) 100 (98754) 2018-07-15 22:38:58
#70 Steve Vaillancourt (stvai2) 100 (15041) 2018-07-27 19:43:46
#71 clyto (clytorock) 100 (3595) 2018-11-03 15:10:00
#72 Michael (FoM) 100 (38953) 2019-01-13 22:58:32
#73 sarah b (silva) 100 (40508) 2019-01-22 16:40:44
#74 madness (madness) 100 (50496) 2019-04-03 02:33:47
#75 r karoly (r_karoly) 100 (4178) 2019-05-10 12:46:19
#76 Mike (RogueRamblers) 100 (56607) 2019-05-30 19:49:58
#77 Stephan (Stephje1978) 100 (27064) 2019-07-04 19:59:15
#78 david (sexton) 100 (2801) 2019-07-05 09:46:03
#79 Jeff (Fountain) 100 (8788) 2019-07-14 02:43:55
#80 Eugene (lim0n) 100 (161187) 2019-09-26 12:10:09
#81 Julian (Lemmynator) 100 (19439) 2019-10-09 17:34:47
#82 Timm Knape (itmm) 100 (5847) 2019-11-10 23:16:03
#83 KlausG (lösbär) 100 (11811) 2020-03-31 17:40:52
#84 James T (bubblesort) 100 (7344) 2020-04-10 15:05:54
#85 Franco (sharkman) 100 (4174) 2020-04-23 10:19:21
You must be logged in to solve the challenge
Pages [1] 1 Show All  
 
 
powered by the CrypTool project  CrypTool

 

   +++    [14:06 - 21.09.2020] cytadela8 solved the Level I challenge 'Caesar Encryption'    +++    [13:01 - 21.09.2020] cytadela8 solved the Level I challenge 'A modified homophonic cipher with reduced alphabets — Part 2'    +++    [11:42 - 21.09.2020] Wokini solved the Level I challenge 'Monoalphabetic Substitution'    +++    [11:12 - 21.09.2020] cytadela8 solved the Level II challenge 'Advent Challenge — Part 3'    +++    [11:03 - 21.09.2020] cytadela8 solved the Level II challenge 'Advent-Challenge — Part 2'    +++